sat.trackr.live / text

‹ back to catalog

STARLINK-3583

NORAD 51876 · 2022-022AA

PAYLOAD ACTIVE UNKNOWN

§ Identity

Operator
Country
US
Launch date
2022-03-03
Launch site
AFETR
Launch vehicle
Mass (kg)
RCS (m²)

Purposes: comms

External: N2YO · Heavens-Above · Gunter

§ Orbital elements

Epoch: 2026-09-19T14:02:36.226464Z

Period
93.79 min
Inclination
53.1596°
Eccentricity
0.0001270
Mean motion
15.35399199 rev/d
Perigee alt
458.9 km
Apogee alt
460.6 km
Semi-major
6,837.9 km
B*
2.3833e-5
RAAN
208.5027°
Arg perigee
94.8166°
Mean anomaly
265.2982°
Rev number
25,252

§ Raw data

STARLINK-35831 51876U 22022AA  26262.58514151  .00000451  00000+0  23833-4 0  99952 51876  53.1596 208.5027 0001270  94.8166 265.2982 15.35399199252520

JSON: /api/v1/satellites/51876 · /tle

For live sub-satellite position, see the globe view (requires WebGL).

§ Visibility from observer

Set your observer location to see the next 7 days of passes ≥ 10°. The values pass through the URL so the page stays shareable.

No JS? Fill the form by hand. The geolocation button needs JavaScript.